EDT,Max TemperatureF,Mean TemperatureF,Min TemperatureF,Max Dew PointF,MeanDew PointF,Min DewpointF,Max Humidity, Mean Humidity, Min Humidity, Max Sea Level PressureIn, Mean Sea Level PressureIn, Min Sea Level PressureIn, Max VisibilityMiles, Mean VisibilityMiles, Min VisibilityMiles, Max Wind SpeedMPH, Mean Wind SpeedMPH, Max Gust SpeedMPH,PrecipitationIn, CloudCover, Events, WindDirDegrees
2013-10-1,75,63,50,57,54,50,100,75,49,30.18,30.13,30.09,10,6,0,12,2,15,0.00,5,Fog,280
2013-10-2,77,63,49,59,52,46,100,75,50,30.22,30.17,30.13,10,6,1,12,1,14,0.00,3,,302
2013-10-3,80,66,51,62,54,50,100,74,48,30.22,30.18,30.09,10,4,0,7,0,8,0.00,4,Fog,315
2013-10-4,81,68,54,62,57,53,93,72,51,30.22,30.16,30.12,10,6,0,10,1,16,0.00,3,Fog,279
2013-10-5,82,68,53,63,57,52,97,74,51,30.21,30.16,30.07,10,5,0,7,1,12,0.00,3,Fog,275
2013-10-6,83,68,53,62,55,52,93,64,34,30.08,30.01,29.84,10,5,0,20,5,28,0.00,2,Fog,166
2013-10-7,71,55,38,58,48,39,100,80,59,30.21,29.95,29.76,10,10,7,18,4,25,0.46,6,Rain,253
2013-10-8,68,53,38,46,39,36,96,64,32,30.35,30.26,30.17,10,5,0,10,1,14,0.00,2,Fog,200
2013-10-9,69,53,37,46,36,27,93,57,21,30.35,30.29,30.25,10,10,10,9,1,16,0.08,1,Rain,155
2013-10-10,71,59,47,56,51,46,93,75,57,30.22,30.17,30.09,10,10,9,13,4,17,0.08,8,Rain,345
2013-10-11,62,58,54,55,53,51,93,84,75,30.10,30.06,30.04,10,10,5,9,3,10,0.01,8,,331
2013-10-12,74,64,54,59,55,53,93,77,61,30.19,30.12,30.06,10,10,10,7,1,13,0.00,7,,65
2013-10-13,74,64,53,55,54,51,93,73,53,30.30,30.24,30.18,10,10,10,9,1,16,0.00,7,,120
2013-10-14,73,62,51,59,55,50,96,79,61,30.33,30.28,30.22,10,9,2,14,2,18,0.00,6,,321
2013-10-15,74,62,50,56,51,46,100,72,44,30.24,30.17,30.07,10,8,1,9,2,13,0.00,4,,187
2013-10-16,71,59,46,58,50,44,93,73,52,30.07,30.02,29.96,10,10,10,10,1,15,T,6,Rain,272
2013-10-17,70,59,48,59,53,42,90,82,73,29.99,29.91,29.74,10,10,9,30,4,41,0.12,8,Rain,262
2013-10-18,61,48,35,43,39,35,92,66,39,30.10,30.03,29.98,10,10,10,12,3,16,0.00,3,,288
2013-10-19,59,47,35,46,38,33,100,80,59,30.05,29.96,29.85,10,7,1,24,5,36,0.08,7,Rain,261
2013-10-20,57,44,31,36,33,28,92,64,35,30.17,30.08,29.99,10,10,10,13,3,17,0.00,3,,258
2013-10-21,68,48,27,39,30,25,92,59,26,30.19,30.10,29.97,10,7,1,12,1,16,0.00,2,,271
2013-10-22,54,43,32,45,37,30,92,69,46,30.02,29.95,29.91,10,10,10,15,3,20,0.07,5,Rain,285
2013-10-23,43,37,31,37,33,29,96,88,79,30.02,29.84,29.72,10,8,1,16,4,23,0.15,7,Rain-Snow,296
2013-10-24,40,35,29,32,29,27,92,78,64,30.23,30.09,29.98,10,8,0,17,6,24,0.14,8,Fog-Rain-Snow,273
2013-10-25,41,32,23,29,27,22,92,73,54,30.43,30.35,30.20,10,10,10,12,3,15,0.00,6,,293
2013-10-26,53,37,20,28,21,17,92,59,26,30.38,30.18,30.02,10,10,10,18,6,32,0.00,3,,235
2013-10-27,54,42,29,34,31,25,92,68,44,30.19,30.10,30.04,10,10,10,15,5,24,0.00,4,,254
2013-10-28,63,46,29,38,32,27,92,63,34,30.35,30.27,30.19,10,10,9,13,1,20,0.00,2,,300
2013-10-29,65,47,28,42,33,27,92,64,36,30.44,30.37,30.32,10,8,2,10,1,16,0.00,1,,351
2013-10-30,56,50,44,54,49,40,96,86,76,30.28,30.23,30.18,10,6,1,5,0,6,0.05,8,Rain,315
2013-10-31,68,60,52,56,52,49,100,75,49,30.16,29.99,29.65,10,8,2,17,4,28,0.07,6,Rain,177